BEIDOU-3 M26 (C48)

Last updated on Mon Oct 20 2025 00:03:25 GMT+0000 (Coordinated Universal Time)

1 58655U 23207B 25290.92955383 -.00000020 00000+0 00000+0 0 9996 2 58655 55.5382 70.4760 0001949 228.9154 131.0589 1.86231402 12318
UTC large
Height (km)
Speed (km/s)
/
Latitude / Longitude
Inclination (degrees)
Orbital Period (minutes)
Azimuth
Elevation
Range (km)
Doppler Factor

Next 0 passes for location: London (51.5072 / 0.1276)

Sorry there are no passes over London.